Time,TemperatureF,DewpointF,PressureIn,WindDirection,WindDirectionDegrees,WindSpeedMPH,WindSpeedGustMPH,Humidity,HourlyPrecipIn,Conditions,Clouds,dailyrainin,SoftwareType,DateUTC
2013-01-17 00:13:00,37.2,37.0,29.93,WNW,294,0.0,2.0,97,0.00,,,0.00,weatherlink.com 1.10,2013-01-17 05:13:00,
2013-01-17 00:28:00,37.3,37.0,29.94,WNW,296,1.0,2.0,97,0.00,,,0.00,weatherlink.com 1.10,2013-01-17 05:28:00,
2013-01-17 00:43:00,37.5,37.0,29.95,NW,310,0.0,0.0,97,0.00,,,0.00,weatherlink.com 1.10,2013-01-17 05:43:00,
2013-01-17 00:58:00,37.8,36.0,29.95,NW,304,3.0,5.0,92,0.00,,,0.00,weatherlink.com 1.10,2013-01-17 05:58:00,
2013-01-17 01:13:00,40.1,35.0,29.96,WNW,284,2.0,7.0,81,0.00,,,0.00,weatherlink.com 1.10,2013-01-17 06:13:00,
2013-01-17 01:29:00,41.1,34.0,29.96,WNW,294,5.0,7.0,76,0.00,,,0.00,weatherlink.com 1.10,2013-01-17 06:29:00,
2013-01-17 01:43:00,41.6,33.0,29.96,WNW,298,5.0,7.0,72,0.00,,,0.00,weatherlink.com 1.10,2013-01-17 06:43:00,
2013-01-17 01:58:00,41.6,32.0,29.96,WNW,286,4.0,6.0,70,0.00,,,0.00,weatherlink.com 1.10,2013-01-17 06:58:00,
2013-01-17 02:13:00,41.6,31.0,29.97,WNW,297,3.0,9.0,67,0.00,,,0.00,weatherlink.com 1.10,2013-01-17 07:13:00,
2013-01-17 02:28:00,41.6,31.0,29.96,WNW,285,5.0,7.0,65,0.00,,,0.00,weatherlink.com 1.10,2013-01-17 07:28:00,
2013-01-17 02:58:00,41.4,30.0,29.94,NW,315,1.0,7.0,64,0.00,,,0.00,weatherlink.com 1.10,2013-01-17 07:58:00,
2013-01-17 03:13:00,40.9,29.0,29.96,WNW,292,3.0,6.0,64,0.00,,,0.00,weatherlink.com 1.10,2013-01-17 08:13:00,
2013-01-17 03:28:00,41.2,29.0,29.96,NW,306,0.0,7.0,61,0.00,,,0.00,weatherlink.com 1.10,2013-01-17 08:28:00,
2013-01-17 03:43:00,41.3,28.0,29.96,NW,313,2.0,5.0,60,0.00,,,0.00,weatherlink.com 1.10,2013-01-17 08:43:00,
2013-01-17 03:58:00,40.9,28.0,29.94,West,279,0.0,1.0,61,0.00,,,0.00,weatherlink.com 1.10,2013-01-17 08:58:00,
2013-01-17 04:13:00,40.6,27.0,29.96,NW,319,1.0,7.0,58,0.00,,,0.00,weatherlink.com 1.10,2013-01-17 09:13:00,
2013-01-17 04:28:00,40.9,29.0,29.97,West,281,0.0,4.0,62,0.00,,,0.00,weatherlink.com 1.10,2013-01-17 09:28:00,
2013-01-17 04:43:00,40.9,27.0,29.97,NW,306,0.0,3.0,58,0.00,,,0.00,weatherlink.com 1.10,2013-01-17 09:43:00,
2013-01-17 04:58:00,40.7,28.0,29.98,ESE,120,0.0,2.0,61,0.00,,,0.00,weatherlink.com 1.10,2013-01-17 09:58:00,
2013-01-17 05:13:00,40.7,26.0,29.98,WNW,294,1.0,4.0,56,0.00,,,0.00,weatherlink.com 1.10,2013-01-17 10:13:00,
2013-01-17 05:28:00,40.9,26.0,29.97,WNW,302,2.0,5.0,55,0.00,,,0.00,weatherlink.com 1.10,2013-01-17 10:28:00,
2013-01-17 05:43:00,40.6,27.0,29.99,NW,304,2.0,5.0,59,0.00,,,0.00,weatherlink.com 1.10,2013-01-17 10:43:00,
2013-01-17 05:58:00,40.0,27.0,29.98,NW,309,0.0,6.0,59,0.00,,,0.00,weatherlink.com 1.10,2013-01-17 10:58:00,
2013-01-17 06:13:00,39.8,27.0,29.99,WNW,294,5.0,6.0,60,0.00,,,0.00,weatherlink.com 1.10,2013-01-17 11:13:00,
2013-01-17 06:28:00,39.6,27.0,30.00,WNW,286,0.0,4.0,62,0.00,,,0.00,weatherlink.com 1.10,2013-01-17 11:28:00,
2013-01-17 06:43:00,39.3,26.0,30.01,WNW,298,6.0,8.0,60,0.00,,,0.00,weatherlink.com 1.10,2013-01-17 11:43:00,
2013-01-17 06:58:00,39.1,26.0,30.01,NW,305,1.0,3.0,60,0.00,,,0.00,weatherlink.com 1.10,2013-01-17 11:58:00,
2013-01-17 07:13:00,38.7,27.0,30.01,West,280,6.0,10.0,62,0.00,,,0.00,weatherlink.com 1.10,2013-01-17 12:13:00,
2013-01-17 07:28:00,38.7,27.0,30.02,WNW,300,1.0,7.0,63,0.00,,,0.00,weatherlink.com 1.10,2013-01-17 12:28:00,
2013-01-17 07:44:00,38.4,27.0,30.04,NW,306,0.0,3.0,65,0.00,,,0.00,weatherlink.com 1.10,2013-01-17 12:44:00,
2013-01-17 07:58:00,38.4,28.0,30.06,WNW,297,4.0,4.0,66,0.00,,,0.00,weatherlink.com 1.10,2013-01-17 12:58:00,
2013-01-17 08:14:00,38.5,28.0,30.04,WNW,289,5.0,8.0,67,0.00,,,0.00,weatherlink.com 1.10,2013-01-17 13:14:00,
2013-01-17 08:29:00,38.6,28.0,30.06,NW,326,1.0,9.0,67,0.00,,,0.00,weatherlink.com 1.10,2013-01-17 13:29:00,
2013-01-17 08:44:00,38.7,29.0,30.05,East,84,0.0,3.0,67,0.00,,,0.00,weatherlink.com 1.10,2013-01-17 13:44:00,
2013-01-17 08:59:00,38.8,29.0,30.06,WNW,291,3.0,5.0,69,0.00,,,0.00,weatherlink.com 1.10,2013-01-17 13:59:00,
2013-01-17 09:14:00,38.8,30.0,30.08,WNW,301,4.0,11.0,70,0.00,,,0.00,weatherlink.com 1.10,2013-01-17 14:14:00,
2013-01-17 09:29:00,38.8,30.0,30.07,WSW,244,2.0,9.0,70,0.00,,,0.00,weatherlink.com 1.10,2013-01-17 14:29:00,
2013-01-17 09:44:00,39.2,31.0,30.07,WNW,294,5.0,5.0,72,0.00,,,0.00,weatherlink.com 1.10,2013-01-17 14:44:00,
2013-01-17 09:59:00,39.5,30.0,30.07,West,281,0.0,4.0,70,0.00,,,0.00,weatherlink.com 1.10,2013-01-17 14:59:00,
2013-01-17 10:14:00,39.7,31.0,30.08,West,263,1.0,7.0,70,0.00,,,0.00,weatherlink.com 1.10,2013-01-17 15:14:00,
2013-01-17 10:29:00,40.5,32.0,30.07,SSW,205,0.0,6.0,71,0.00,,,0.00,weatherlink.com 1.10,2013-01-17 15:29:00,
2013-01-17 10:44:00,40.7,32.0,30.09,WNW,294,5.0,7.0,70,0.00,,,0.00,weatherlink.com 1.10,2013-01-17 15:44:00,
2013-01-17 10:59:00,40.3,30.0,30.08,NW,304,4.0,11.0,68,0.00,,,0.00,weatherlink.com 1.10,2013-01-17 15:59:00,
2013-01-17 11:14:00,39.8,30.0,30.09,NW,304,1.0,6.0,69,0.00,,,0.00,weatherlink.com 1.10,2013-01-17 16:14:00,
2013-01-17 11:29:00,39.4,31.0,30.08,WNW,290,7.0,8.0,71,0.00,,,0.00,weatherlink.com 1.10,2013-01-17 16:29:00,
2013-01-17 11:44:00,38.9,31.0,30.07,WNW,288,4.0,11.0,72,0.00,,,0.00,weatherlink.com 1.10,2013-01-17 16:44:00,
2013-01-17 11:59:00,38.9,31.0,30.05,WNW,282,7.0,11.0,72,0.00,,,0.00,weatherlink.com 1.10,2013-01-17 16:59:00,
2013-01-17 12:14:00,39.1,31.0,30.05,WNW,290,3.0,4.0,73,0.00,,,0.00,weatherlink.com 1.10,2013-01-17 17:14:00,
2013-01-17 12:29:00,39.3,31.0,30.05,NW,311,1.0,7.0,72,0.00,,,0.00,weatherlink.com 1.10,2013-01-17 17:29:00,
2013-01-17 12:44:00,39.6,31.0,30.06,WNW,284,3.0,7.0,72,0.00,,,0.00,weatherlink.com 1.10,2013-01-17 17:44:00,
2013-01-17 12:59:00,39.4,31.0,30.05,WNW,288,2.0,6.0,72,0.00,,,0.00,weatherlink.com 1.10,2013-01-17 17:59:00,
2013-01-17 13:16:00,39.4,30.0,30.05,WNW,284,3.0,7.0,70,0.00,,,0.00,weatherlink.com 1.10,2013-01-17 18:16:00,
2013-01-17 13:29:00,39.3,31.0,30.04,NW,313,4.0,8.0,71,0.00,,,0.00,weatherlink.com 1.10,2013-01-17 18:29:00,
2013-01-17 13:44:00,39.3,30.0,30.04,WNW,296,3.0,5.0,70,0.00,,,0.00,weatherlink.com 1.10,2013-01-17 18:44:00,
2013-01-17 13:59:00,39.3,30.0,30.02,WNW,291,1.0,5.0,70,0.00,,,0.00,weatherlink.com 1.10,2013-01-17 18:59:00,
2013-01-17 14:14:00,39.2,31.0,30.02,WNW,289,5.0,6.0,71,0.00,,,0.00,weatherlink.com 1.10,2013-01-17 19:14:00,
2013-01-17 14:29:00,38.9,30.0,30.01,WNW,288,1.0,3.0,71,0.00,,,0.00,weatherlink.com 1.10,2013-01-17 19:29:00,
2013-01-17 14:44:00,38.7,30.0,30.02,WNW,297,4.0,4.0,72,0.00,,,0.00,weatherlink.com 1.10,2013-01-17 19:44:00,
2013-01-17 14:59:00,38.6,30.0,30.02,WNW,298,5.0,5.0,71,0.00,,,0.00,weatherlink.com 1.10,2013-01-17 19:59:00,
2013-01-17 15:14:00,38.4,30.0,30.03,WNW,297,1.0,3.0,72,0.00,,,0.00,weatherlink.com 1.10,2013-01-17 20:14:00,
2013-01-17 15:29:00,38.2,30.0,30.02,WNW,297,0.0,0.0,72,0.00,,,0.00,weatherlink.com 1.10,2013-01-17 20:29:00,
2013-01-17 15:44:00,38.1,30.0,30.04,WNW,294,1.0,3.0,73,0.00,,,0.00,weatherlink.com 1.10,2013-01-17 20:44:00,
2013-01-17 15:59:00,37.9,30.0,30.03,WNW,294,0.0,0.0,72,0.00,,,0.00,weatherlink.com 1.10,2013-01-17 20:59:00,
2013-01-17 16:14:00,37.8,30.0,30.04,WNW,294,0.0,0.0,74,0.00,,,0.00,weatherlink.com 1.10,2013-01-17 21:14:00,
2013-01-17 16:29:00,37.6,30.0,30.05,WNW,294,0.0,1.0,75,0.00,,,0.00,weatherlink.com 1.10,2013-01-17 21:29:00,
2013-01-17 16:44:00,37.3,30.0,30.06,WNW,294,0.0,0.0,75,0.00,,,0.00,weatherlink.com 1.10,2013-01-17 21:44:00,
2013-01-17 16:59:00,37.1,31.0,30.06,WNW,294,0.0,0.0,78,0.00,,,0.00,weatherlink.com 1.10,2013-01-17 21:59:00,
2013-01-17 17:14:00,36.8,31.0,30.06,WNW,294,0.0,0.0,78,0.00,,,0.00,weatherlink.com 1.10,2013-01-17 22:14:00,
2013-01-17 17:29:00,36.5,31.0,30.07,WNW,294,0.0,2.0,79,0.00,,,0.00,weatherlink.com 1.10,2013-01-17 22:29:00,
2013-01-17 17:44:00,36.4,30.0,30.06,WNW,294,0.0,3.0,79,0.00,,,0.00,weatherlink.com 1.10,2013-01-17 22:44:00,
2013-01-17 17:59:00,36.3,30.0,30.06,WNW,288,0.0,2.0,78,0.00,,,0.00,weatherlink.com 1.10,2013-01-17 22:59:00,
2013-01-17 18:14:00,36.3,30.0,30.06,WNW,288,0.0,0.0,79,0.00,,,0.00,weatherlink.com 1.10,2013-01-17 23:14:00,
2013-01-17 18:29:00,36.1,30.0,30.07,WNW,288,0.0,0.0,79,0.00,,,0.00,weatherlink.com 1.10,2013-01-17 23:29:00,
2013-01-17 18:44:00,35.9,30.0,30.06,WNW,288,0.0,0.0,80,0.00,,,0.00,weatherlink.com 1.10,2013-01-17 23:44:00,
2013-01-17 18:59:00,35.6,31.0,30.07,WNW,288,0.0,0.0,82,0.00,,,0.00,weatherlink.com 1.10,2013-01-17 23:59:00,
2013-01-17 19:14:00,35.4,30.0,30.06,WNW,288,0.0,0.0,82,0.00,,,0.00,weatherlink.com 1.10,2013-01-18 00:14:00,
2013-01-17 19:29:00,35.2,31.0,30.06,WNW,288,0.0,0.0,83,0.00,,,0.00,weatherlink.com 1.10,2013-01-18 00:29:00,
2013-01-17 19:45:00,35.0,30.0,30.04,WNW,288,0.0,0.0,82,0.00,,,0.00,weatherlink.com 1.10,2013-01-18 00:45:00,
2013-01-17 20:00:00,35.0,31.0,30.03,WNW,288,0.0,0.0,84,0.00,,,0.00,weatherlink.com 1.10,2013-01-18 01:00:00,
2013-01-17 20:15:00,35.0,30.0,30.04,WNW,288,0.0,0.0,82,0.00,,,0.00,weatherlink.com 1.10,2013-01-18 01:15:00,
2013-01-17 20:30:00,35.1,30.0,30.04,WNW,295,1.0,3.0,81,0.00,,,0.00,weatherlink.com 1.10,2013-01-18 01:30:00,
2013-01-17 20:45:00,35.2,30.0,30.03,WNW,298,1.0,2.0,80,0.00,,,0.00,weatherlink.com 1.10,2013-01-18 01:45:00,
2013-01-17 21:00:00,35.1,30.0,30.04,WNW,290,2.0,4.0,80,0.00,,,0.00,weatherlink.com 1.10,2013-01-18 02:00:00,
2013-01-17 21:15:00,35.1,30.0,30.05,WNW,293,1.0,2.0,80,0.00,,,0.00,weatherlink.com 1.10,2013-01-18 02:15:00,
2013-01-17 21:30:00,35.0,29.0,30.04,WNW,288,1.0,3.0,80,0.00,,,0.00,weatherlink.com 1.10,2013-01-18 02:30:00,
2013-01-17 21:45:00,35.0,29.0,30.04,West,277,1.0,2.0,80,0.00,,,0.00,weatherlink.com 1.10,2013-01-18 02:45:00,
2013-01-17 22:00:00,34.8,29.0,30.03,WNW,299,0.0,2.0,80,0.00,,,0.00,weatherlink.com 1.10,2013-01-18 03:00:00,
2013-01-17 22:15:00,34.8,29.0,30.03,WNW,296,2.0,4.0,79,0.00,,,0.00,weatherlink.com 1.10,2013-01-18 03:15:00,
2013-01-17 22:30:00,35.0,29.0,30.05,WNW,293,0.0,4.0,79,0.00,,,0.00,weatherlink.com 1.10,2013-01-18 03:30:00,
2013-01-17 22:45:00,34.8,29.0,30.05,WNW,300,0.0,2.0,78,0.00,,,0.00,weatherlink.com 1.10,2013-01-18 03:45:00,
2013-01-17 23:00:00,35.0,29.0,30.04,NW,304,2.0,5.0,78,0.00,,,0.00,weatherlink.com 1.10,2013-01-18 04:00:00,
2013-01-17 23:15:00,35.1,29.0,30.02,WNW,290,1.0,5.0,77,0.00,,,0.00,weatherlink.com 1.10,2013-01-18 04:15:00,
2013-01-17 23:30:00,35.0,29.0,30.04,WNW,298,1.0,3.0,78,0.00,,,0.00,weatherlink.com 1.10,2013-01-18 04:30:00,
2013-01-17 23:45:00,34.6,28.0,30.01,WNW,294,2.0,4.0,78,0.00,,,0.00,weatherlink.com 1.10,2013-01-18 04:45:00,